[[{"header":{"parameterUnit":"m.s-1","parameterCategory":2,"la1":30.2992,"la2":30.254,"lo1":-89.0895,"lo2":-89.0443,"dy":0.0025,"dx":0.0025,"nx":19,"ny":19,"refTime":"2026-04-22T21:00:00:Z","depth":"0","parameterNumber":2,"parameterNumberName":"U-component_of_CURRENTS"},"data":[0,0,0,0.2028,0.203,0.2142,0.2143,0.2329,0.233,0,0,0,0,0,0,0,0,0,0,0,0.1984,0.1985,0.2027,0.203,0.2142,0.2143,0.2328,0.233,0,0,0,0,0,0,0,0,0,0,0,0.1984,0.1984,0.1985,0.203,0.2142,0.2143,0.2328,0.2234,0,0,0,0,0,0,0,0,0,0,0.2121,0.2072,0.1984,0.1985,0.2031,0.2142,0.2143,0.223,0.224,0.2287,0,0.2297,0,0.2319,0.2343,0.2344,0,0,0,0.2038,0.2063,0.2093,0.1985,0.2032,0.2142,0.2094,0.2235,0.2247,0.2302,0.23,0.2307,0.2322,0.2344,0.2345,0.2559,0.256,0,0,0.2031,0.2011,0.2084,0.21,0.2054,0.209,0.2097,0.2242,0.2253,0.2301,0.2311,0.2325,0.2345,0.2347,0.2558,0.2559,0,0,0,0.2008,0.2006,0.2032,0.2092,0.211,0.2093,0.2101,0.2247,0.2255,0.2313,0.2327,0.2346,0.2349,0.2557,0.2558,0.2578,0,0,0,0.2005,0.1992,0.2028,0.2018,0.2107,0.2175,0.2102,0.2244,0.2262,0.2326,0.2347,0.2351,0.2556,0.2558,0.2575,0.2577,0,0,0,0.198,0.199,0.2,0.2017,0.2062,0.2173,0.2189,0.2248,0.2271,0.2344,0.2351,0.2555,0.2557,0.2573,0.2573,0.2615,0,0,0,0.196,0.1987,0.1999,0.2049,0.2061,0.2176,0.2189,0.2285,0.2351,0.2348,0.2556,0.2558,0.2572,0.2571,0.2612,0.2541,0.2547,0,0,0.1985,0.199,0.2024,0.2038,0.2137,0.2161,0.2285,0.2368,0.24,0.251,0.2515,0.2576,0.2573,0.2614,0.2668,0.2669,0,0,0,0.2028,0.2045,0.2083,0.2139,0.2219,0.23,0.238,0.2426,0.2527,0.2447,0.2616,0.2614,0.2638,0.2592,0.2594,0.2334,0.2568,0.2568,0.2568,0.201,0.2067,0.2134,0.2214,0.2293,0.2412,0.2487,0.2565,0.2591,0.2642,0.2659,0.2743,0.2696,0.2696,0.243,0.2697,0.2697,0.2697,0.2697,0.2046,0.2079,0.2163,0.2244,0.2341,0.2444,0.2594,0.263,0.2745,0.2732,0.2755,0.2652,0.2699,0.2415,0.2699,0.2699,0.2699,0.2699,0.2699,0.2018,0.2042,0.2099,0.2218,0.2327,0.2457,0.2575,0.2671,0.2756,0.2796,0.2755,0.2754,0.2477,0.2811,0.2812,0.2812,0.2812,0.2812,0.2812,0.1956,0.202,0.2082,0.2196,0.2273,0.2387,0.2564,0.265,0.2744,0.2779,0.2779,0.2475,0.2778,0.2743,0.2816,0.2815,0.2815,0.2814,0.2814,0.1941,0.1956,0.2056,0.2128,0.229,0.2341,0.2499,0.2626,0.2724,0.2756,0.2439,0.2777,0.2763,0.2761,0.2727,0.2791,0.2791,0.2791,0.2791,0.1909,0.1928,0.2054,0.2168,0.2277,0.234,0.2362,0.2426,0.2397,0.2282,0.2283,0.2189,0.2202,0.215,0.2161,0.2113,0.202,0.2019,0.2017,0.192,0.1959,0.2037,0.2149,0.2283,0.2301,0.2214,0.2051,0.1952,0.196,0.1933,0.1966,0.1804,0.1845,0.1745,0.1782,0.1698,0,0]},{"header":{"parameterUnit":"m.s-1","parameterCategory":2,"la1":30.2992,"la2":30.254,"lo1":-89.0895,"lo2":-89.0443,"dy":0.0025,"dx":0.0025,"nx":19,"ny":19,"refTime":"2026-04-22T21:00:00:Z","depth":"0","parameterNumber":3,"parameterNumberName":"V-component_of_CURRENTS"},"data":[0,0,0,0.0148,0.0148,0.017,0.017,0.0185,0.0186,0,0,0,0,0,0,0,0,0,0,0,0.0139,0.014,0.0148,0.0148,0.017,0.017,0.0185,0.0186,0,0,0,0,0,0,0,0,0,0,0,0.0139,0.014,0.014,0.0148,0.017,0.017,0.0185,0.0171,0,0,0,0,0,0,0,0,0,0,0.0151,0.0145,0.014,0.014,0.0148,0.017,0.017,0.0171,0.0172,0.0173,0,0.018,0,0.0185,0.0187,0.0187,0,0,0,0.0145,0.0144,0.0152,0.014,0.0149,0.017,0.0159,0.0172,0.0173,0.0175,0.018,0.0181,0.0185,0.0187,0.0187,0.0259,0.026,0,0,0.0144,0.014,0.0151,0.0154,0.0158,0.0158,0.016,0.0173,0.0174,0.018,0.0181,0.0185,0.0187,0.0187,0.0258,0.0259,0,0,0,0.0142,0.0139,0.0147,0.0153,0.0159,0.0159,0.0161,0.0173,0.0177,0.0181,0.0186,0.0187,0.0187,0.0258,0.0259,0.0335,0,0,0,0.0142,0.0139,0.0147,0.0144,0.0159,0.0168,0.0161,0.0176,0.0178,0.0185,0.0187,0.0187,0.0257,0.0258,0.0332,0.0376,0,0,0,0.0138,0.0138,0.0143,0.0144,0.0156,0.0168,0.0172,0.0177,0.0181,0.0187,0.0187,0.0256,0.0258,0.0328,0.037,0.0465,0,0,0,0.013,0.0156,0.0142,0.0174,0.0156,0.0199,0.0172,0.0197,0.0207,0.0187,0.0257,0.0258,0.0327,0.0367,0.0461,0.0562,0.0591,0,0,0.0163,0.0159,0.018,0.017,0.0222,0.0195,0.0255,0.025,0.0232,0.0249,0.0251,0.0333,0.037,0.0464,0.0653,0.068,0,0,0,0.0191,0.0209,0.0223,0.0247,0.0264,0.0297,0.0288,0.0297,0.0325,0.0246,0.0344,0.0365,0.0422,0.0474,0.0495,0.0442,0.0266,0.0266,0.0265,0.0236,0.0249,0.0294,0.0318,0.0343,0.0369,0.0405,0.0417,0.0379,0.0412,0.0435,0.057,0.0625,0.0642,0.0586,0.0438,0.0438,0.0438,0.0439,0.0304,0.0334,0.0352,0.0399,0.0425,0.0469,0.0519,0.0517,0.0596,0.0526,0.0578,0.0561,0.0671,0.0602,0.0444,0.0443,0.0442,0.0442,0.0441,0.0337,0.0354,0.0379,0.0445,0.0504,0.0537,0.0645,0.0659,0.0678,0.073,0.0801,0.0801,0.0736,0.0762,0.0763,0.0764,0.0764,0.0765,0.0765,0.0357,0.0387,0.0435,0.0497,0.0539,0.0618,0.0724,0.0807,0.0908,0.0913,0.0914,0.079,0.067,0.0652,0.0775,0.0773,0.0772,0.0771,0.077,0.0405,0.0412,0.0487,0.053,0.0638,0.0777,0.0858,0.1079,0.1148,0.1232,0.107,0.102,0.1014,0.0996,0.0987,0.119,0.119,0.119,0.119,0.0428,0.044,0.0536,0.0612,0.0722,0.0847,0.1141,0.1315,0.1336,0.1302,0.121,0.1134,0.1119,0.1112,0.1092,0.1081,0.1302,0.1302,0.1302,0.0467,0.0488,0.0559,0.0635,0.0756,0.0963,0.1285,0.1513,0.144,0.1294,0.112,0.1116,0.0981,0.0962,0.0926,0.0902,0.0874,0,0]}],[{"header":{"parameterUnit":"m.s-1","parameterCategory":2,"la1":30.2992,"la2":30.254,"lo1":-89.0895,"lo2":-89.0443,"dy":0.0025,"dx":0.0025,"nx":19,"ny":19,"refTime":"2026-04-22T21:00:00:Z","depth":"2","parameterNumber":2,"parameterNumberName":"U-component_of_CURRENTS"},"data":[0,0,0,0.1796,0.1798,0.1882,0.1882,0.1988,0.1989,0,0,0,0,0,0,0,0,0,0,0,0.1758,0.1759,0.1796,0.1798,0.1882,0.1882,0.1988,0.199,0,0,0,0,0,0,0,0,0,0,0,0.1758,0.1759,0.1759,0.1799,0.1882,0.1882,0.1988,0.1924,0,0,0,0,0,0,0,0,0,0,0.1842,0.182,0.1758,0.1759,0.1799,0.1882,0.1882,0.1921,0.1928,0.1952,0,0.1965,0,0.1988,0.1997,0.1998,0,0,0,0.1792,0.1814,0.1829,0.1759,0.18,0.1882,0.1842,0.1924,0.1933,0.1962,0.1967,0.1971,0.1989,0.1998,0.1998,0.219,0.2192,0,0,0.1788,0.1783,0.1823,0.1834,0.1822,0.184,0.1845,0.1929,0.1943,0.1967,0.1974,0.1991,0.1999,0.2,0.2189,0.2191,0,0,0,0.1779,0.1779,0.1792,0.1829,0.1849,0.1842,0.1848,0.1939,0.1941,0.1975,0.1992,0.1999,0.2001,0.2188,0.219,0.2285,0,0,0,0.1775,0.1775,0.179,0.1789,0.1847,0.1899,0.1856,0.1935,0.1945,0.1992,0.1999,0.2002,0.2186,0.2189,0.228,0.2244,0,0,0,0.1754,0.1773,0.178,0.1788,0.1828,0.1898,0.1905,0.1937,0.1957,0.1998,0.2002,0.2186,0.2188,0.2275,0.2238,0.2341,0,0,0,0.1749,0.1771,0.178,0.1818,0.1827,0.1896,0.1905,0.1983,0.2025,0.2,0.2187,0.219,0.2273,0.2235,0.2337,0.2073,0.2072,0,0,0.1772,0.1774,0.1796,0.1807,0.1867,0.1884,0.1988,0.2056,0.2079,0.2154,0.2159,0.2282,0.2238,0.234,0.2244,0.2238,0,0,0,0.18,0.1807,0.1831,0.1869,0.192,0.1999,0.2061,0.2119,0.2242,0.2118,0.2315,0.2283,0.2346,0.2179,0.2176,0.2204,0.2203,0.2203,0.2203,0.1797,0.1826,0.1873,0.1922,0.1979,0.2097,0.2178,0.2273,0.2298,0.2394,0.2391,0.2558,0.2384,0.2377,0.2463,0.2464,0.2464,0.2465,0.2465,0.182,0.1838,0.1902,0.1957,0.205,0.2148,0.2306,0.2376,0.2531,0.251,0.257,0.232,0.2378,0.2473,0.2472,0.247,0.247,0.2469,0.2469,0.1805,0.1817,0.1864,0.1953,0.2063,0.2187,0.2319,0.2451,0.2577,0.2648,0.2511,0.2504,0.258,0.273,0.2731,0.2731,0.2731,0.2732,0.2732,0.1759,0.1805,0.1843,0.1934,0.2016,0.2129,0.2333,0.2426,0.2517,0.2542,0.2541,0.2646,0.2638,0.2596,0.2737,0.2736,0.2736,0.2735,0.2735,0.1729,0.1726,0.1803,0.1866,0.2012,0.2039,0.2213,0.2288,0.2415,0.2402,0.2497,0.2501,0.2433,0.2431,0.2384,0.2463,0.2463,0.2463,0.2463,0.1687,0.1688,0.1779,0.1875,0.1968,0.2011,0.1945,0.1906,0.2048,0.2041,0.206,0.1928,0.1948,0.1847,0.1859,0.1797,0.1724,0.1723,0.1722,0.1673,0.1703,0.1766,0.185,0.1963,0.1938,0.1738,0.1459,0.1459,0.1697,0.1977,0.2405,0.2256,0.2269,0.2147,0.2154,0.2068,0,0]},{"header":{"parameterUnit":"m.s-1","parameterCategory":2,"la1":30.2992,"la2":30.254,"lo1":-89.0895,"lo2":-89.0443,"dy":0.0025,"dx":0.0025,"nx":19,"ny":19,"refTime":"2026-04-22T21:00:00:Z","depth":"2","parameterNumber":3,"parameterNumberName":"V-component_of_CURRENTS"},"data":[0,0,0,0.0041,0.0041,0.0045,0.0045,0.0041,0.0041,0,0,0,0,0,0,0,0,0,0,0,0.0038,0.0038,0.0041,0.0041,0.0045,0.0045,0.0041,0.0041,0,0,0,0,0,0,0,0,0,0,0,0.0038,0.0038,0.0038,0.0041,0.0045,0.0045,0.0041,0.0038,0,0,0,0,0,0,0,0,0,0,0.0035,0.0034,0.0038,0.0038,0.0042,0.0045,0.0045,0.0038,0.0038,0.0039,0,0.0044,0,0.0047,0.0041,0.0041,0,0,0,0.0034,0.0034,0.0039,0.0038,0.0042,0.0045,0.0041,0.0038,0.0039,0.0039,0.0044,0.0044,0.0046,0.0041,0.0041,0.0084,0.0084,0,0,0.0034,0.0033,0.0039,0.004,0.0049,0.0041,0.0041,0.0039,0.0039,0.0044,0.0044,0.0046,0.0041,0.0041,0.0083,0.0084,0,0,0,0.0038,0.0033,0.0038,0.004,0.0043,0.0041,0.0042,0.0039,0.0042,0.0044,0.0046,0.0041,0.0041,0.0083,0.0083,0.0132,0,0,0,0.0038,0.0036,0.0038,0.0037,0.0044,0.0042,0.0042,0.0042,0.0042,0.0046,0.0041,0.0041,0.0082,0.0083,0.0129,0.0157,0,0,0,0.0037,0.0036,0.0039,0.0037,0.0043,0.0042,0.0045,0.0042,0.0044,0.0041,0.0041,0.0082,0.0083,0.0127,0.0153,0.0274,0,0,0,0.0032,0.005,0.0039,0.006,0.0043,0.0065,0.0045,0.0055,0.0056,0.0041,0.0082,0.0083,0.0127,0.0151,0.0271,0.0374,0.04,0,0,0.0056,0.0053,0.0066,0.0057,0.0089,0.0063,0.0088,0.0078,0.0072,0.008,0.0081,0.013,0.0153,0.0274,0.0434,0.0459,0,0,0,0.0074,0.0087,0.0094,0.0108,0.0113,0.0125,0.0107,0.0114,0.0134,0.0079,0.0138,0.0151,0.0226,0.028,0.03,0.0088,0.0088,0.0088,0.0088,0.0109,0.0115,0.0144,0.0155,0.0166,0.0165,0.0184,0.0192,0.0163,0.0192,0.0196,0.0327,0.0382,0.0399,0.0199,0.0199,0.0199,0.0199,0.02,0.0161,0.0182,0.0188,0.0218,0.0224,0.0241,0.0265,0.0259,0.0324,0.0262,0.0334,0.0333,0.0424,0.0204,0.0203,0.0202,0.0202,0.0202,0.0201,0.019,0.0201,0.0217,0.0258,0.0289,0.0292,0.0386,0.0369,0.0394,0.0435,0.0547,0.0547,0.0388,0.0492,0.0492,0.0493,0.0494,0.0494,0.0494,0.0212,0.023,0.0259,0.0299,0.0324,0.0392,0.046,0.0544,0.0631,0.0626,0.0628,0.0427,0.0417,0.0407,0.0505,0.0503,0.0501,0.05,0.05,0.0251,0.0252,0.0304,0.033,0.0411,0.0565,0.0635,0.0859,0.0915,0.1004,0.0762,0.0753,0.0765,0.0748,0.0747,0.0927,0.0927,0.0927,0.0927,0.027,0.0275,0.0343,0.0391,0.0493,0.0634,0.0954,0.107,0.1072,0.0986,0.0983,0.0904,0.0887,0.0899,0.0879,0.0877,0.1091,0.1091,0.1091,0.0297,0.0316,0.0369,0.0415,0.0516,0.0774,0.1105,0.1182,0.1053,0.1088,0.0914,0.0957,0.0828,0.0806,0.0809,0.0783,0.0773,0,0]}],[{"header":{"parameterUnit":"m.s-1","parameterCategory":2,"la1":30.2992,"la2":30.254,"lo1":-89.0895,"lo2":-89.0443,"dy":0.0025,"dx":0.0025,"nx":19,"ny":19,"refTime":"2026-04-22T21:00:00:Z","depth":"4","parameterNumber":2,"parameterNumberName":"U-component_of_CURRENTS"},"data":[0,0,0,0.0907,0.0907,0.0919,0.0919,0.0984,0.0985,0,0,0,0,0,0,0,0,0,0,0,0.0918,0.0919,0.0907,0.0907,0.0919,0.0919,0.0984,0.0985,0,0,0,0,0,0,0,0,0,0,0,0.0918,0.0919,0.0919,0.0907,0.0919,0.0919,0.0984,0.0963,0,0,0,0,0,0,0,0,0,0,0.0945,0.0953,0.0918,0.0919,0.0907,0.0919,0.0919,0.0961,0.0964,0.0993,0,0.1006,0,0.0992,0.0991,0.0991,0,0,0,0.0908,0.095,0.0947,0.0919,0.0907,0.0919,0.0914,0.0963,0.0966,0.0997,0.1007,0.1009,0.0993,0.0991,0.0992,0.1035,0.1035,0,0,0.0908,0.0925,0.0945,0.0949,0.0927,0.0913,0.0914,0.0964,0.098,0.1007,0.101,0.0994,0.0992,0.0992,0.1035,0.1035,0,0,0,0.0905,0.0925,0.092,0.0948,0.0943,0.0914,0.0915,0.0978,0.0975,0.101,0.0995,0.0992,0.0993,0.1035,0.1035,0.1044,0,0,0,0.0905,0.0923,0.092,0.0931,0.0942,0.0954,0.0928,0.0972,0.0976,0.0995,0.0992,0.0994,0.1035,0.1035,0.1044,0.1038,0,0,0,0.0915,0.0924,0.0928,0.0932,0.0933,0.0952,0.0952,0.0972,0.0967,0.0991,0.0994,0.1035,0.1035,0.1044,0.1038,0.1085,0,0,0,0.0927,0.0918,0.093,0.0916,0.0933,0.0916,0.0951,0.0966,0.0986,0.0993,0.1035,0.1035,0.1044,0.1038,0.1084,0.0942,0,0,0,0.091,0.0918,0.0903,0.0912,0.088,0.0913,0.0903,0.0959,0.0989,0.1023,0.1024,0.1044,0.1038,0.1085,0.0924,0,0,0,0,0.0891,0.0889,0.088,0.0872,0.0866,0.0877,0.0918,0.0955,0.1009,0.0998,0.1035,0.103,0.106,0.0974,0.1033,0.1033,0.1033,0.1033,0.1033,0.0906,0.088,0.0851,0.0831,0.0836,0.0865,0.0894,0.0952,0.0989,0.1023,0.1031,0.106,0.0967,0.1029,0.1029,0.1029,0.1029,0.1029,0.1029,0.0856,0.0823,0.0826,0.0799,0.0819,0.0838,0.0894,0.0942,0.1024,0.1032,0.1062,0.0979,0.103,0.103,0.1029,0.1029,0.1029,0.1029,0.1029,0.0834,0.081,0.0811,0.0775,0.08,0.0834,0.0869,0.0939,0.1029,0.1057,0.1004,0.1076,0.1085,0.1097,0.1097,0.1097,0.1097,0.1097,0.1097,0.0804,0.0786,0.0753,0.0752,0.0748,0.0794,0.087,0.0915,0.1,0.0991,0.1077,0.1084,0.1082,0.1089,0.11,0.1099,0.1099,0.1099,0.1099,0.0726,0.0748,0.0665,0.0652,0.0625,0.0656,0.0779,0.0851,0.0904,0.0927,0.0966,0.0972,0.0963,0.0965,0.0968,0.0943,0.0942,0.094,0,0.0689,0.0689,0.0557,0.0463,0.043,0.0528,0.0589,0.068,0.0778,0.0755,0.0876,0.0914,0.092,0.0902,0.0901,0.0899,0,0,0,0.0625,0.0601,0.0472,0.037,0.0298,0.0424,0.059,0.0588,0.0806,0.0792,0.0896,0.0907,0.097,0.1108,0.111,0.1107,0.112,0,0]},{"header":{"parameterUnit":"m.s-1","parameterCategory":2,"la1":30.2992,"la2":30.254,"lo1":-89.0895,"lo2":-89.0443,"dy":0.0025,"dx":0.0025,"nx":19,"ny":19,"refTime":"2026-04-22T21:00:00:Z","depth":"4","parameterNumber":3,"parameterNumberName":"V-component_of_CURRENTS"},"data":[0,0,0,0.0122,0.0123,0.018,0.0181,0.0248,0.0249,0,0,0,0,0,0,0,0,0,0,0,0.0099,0.0099,0.0122,0.0123,0.018,0.0181,0.0248,0.0249,0,0,0,0,0,0,0,0,0,0,0,0.0099,0.0099,0.0099,0.0123,0.018,0.0181,0.0248,0.0207,0,0,0,0,0,0,0,0,0,0,0.0152,0.0131,0.0099,0.01,0.0124,0.018,0.0181,0.0205,0.0209,0.0221,0,0.0228,0,0.0242,0.0253,0.0254,0,0,0,0.0124,0.0127,0.0143,0.01,0.0124,0.018,0.0155,0.0207,0.0212,0.0227,0.0229,0.0232,0.0243,0.0254,0.0254,0.0347,0.0347,0,0,0.0121,0.011,0.014,0.0146,0.0138,0.0153,0.0157,0.021,0.0215,0.023,0.0234,0.0244,0.0254,0.0255,0.0346,0.0347,0,0,0,0.0111,0.0108,0.0123,0.0143,0.0155,0.0155,0.0159,0.0212,0.0217,0.0235,0.0245,0.0255,0.0255,0.0346,0.0346,0.0377,0,0,0,0.0109,0.0102,0.0121,0.0115,0.0154,0.0185,0.0159,0.0213,0.022,0.0244,0.0255,0.0256,0.0345,0.0346,0.0375,0.0413,0,0,0,0.0097,0.0101,0.0107,0.0115,0.014,0.0185,0.0193,0.0215,0.0226,0.0254,0.0256,0.0345,0.0346,0.0373,0.0409,0.0429,0,0,0,0.0084,0.0105,0.0107,0.0142,0.0139,0.0205,0.0193,0.0241,0.0268,0.0255,0.0345,0.0346,0.0372,0.0407,0.0427,0.0398,0,0,0,0.0106,0.0107,0.0132,0.0135,0.02,0.0198,0.0269,0.0292,0.029,0.0326,0.0328,0.0375,0.0409,0.0428,0.0472,0,0,0,0,0.0137,0.0153,0.0174,0.0211,0.0252,0.0301,0.0322,0.0327,0.0358,0.0311,0.0393,0.0414,0.0424,0.0402,0.0353,0.0352,0.0352,0.0352,0.0352,0.0148,0.0181,0.0233,0.0281,0.0325,0.0376,0.0407,0.0421,0.0406,0.0421,0.045,0.0506,0.0484,0.045,0.045,0.045,0.045,0.045,0.045,0.0194,0.0231,0.0281,0.034,0.0394,0.0456,0.05,0.0493,0.0527,0.0499,0.0506,0.045,0.0454,0.0453,0.0453,0.0452,0.0452,0.0452,0.0452,0.0204,0.0229,0.027,0.0368,0.045,0.0511,0.0595,0.0603,0.0574,0.0593,0.056,0.0538,0.0522,0.0588,0.0589,0.0589,0.0589,0.0589,0.0589,0.0196,0.0244,0.031,0.04,0.0482,0.0576,0.0654,0.0675,0.0656,0.062,0.061,0.0553,0.0548,0.0531,0.0593,0.0593,0.0592,0.0592,0.0592,0.0219,0.0235,0.0343,0.0423,0.0597,0.0658,0.0724,0.0722,0.0731,0.0693,0.0622,0.0619,0.0609,0.0603,0.0586,0.0668,0.0668,0.0668,0,0.0225,0.0241,0.0395,0.0539,0.067,0.0726,0.0754,0.0755,0.0699,0.0682,0.0717,0.0639,0.0635,0.0624,0.0618,0.06,0,0,0,0.0252,0.0295,0.041,0.0554,0.0712,0.0744,0.0759,0.0737,0.0711,0.0693,0.0665,0.0666,0.0644,0.0606,0.0584,0.0578,0.0549,0,0]}]]